軌道要素
The following orbital elements are taken from MPC 71683:
Epoch 2010 June 13.0 TT = JDT 2455360.5
T 2010 May 30.4467 TT MPC
q 2.488029 (2000.0) P Q
n 0.0887875 Peri. 175.7220 +0.9909458 +0.1336371
a 4.976241 Node 176.5177 -0.1286411 +0.9726397
e 0.500018 Incl. 12.3061 -0.0384440 +0.1900345
P 11.1
From 55 observations 1988-2010. +0.00 +0.0000.
|